Other Public Products
Issued by NWS Grand Forks, ND

Home | Current Version | Previous Version | Graphics & Text | Print | Product List | Glossary On
Versions: 1 2 3 4 5 6 7 8 9 10 11 12 13 14 15 16 17 18 19 20 21 22 23 24 25 26 27 28 29 30 31 32 33 34 35 36 37 38 39 40 41 42 43 44 45 46 47 48 49 50
156
FPUS83 KFGF 211810
OPUFGF
PRAIRIE TO PINES WEATHER ROUNDUP
NATIONAL WEATHER SERVICE EASTERN NORTH DAKOTA/GRAND FORKS ND
1200 PM CST WED FEB 21 2018

 **SATELLITE DATA USED TO AUGMENT SKY COVER AT AUTOMATED STATIONS**
 *****  WEATHER ACROSS EASTERN NORTH DAKOTA  *****

CITY           SKY/WX    TMP DP  RH WIND       PRES   REMARKS
GRAND FORKS    FAIR       6  -3  66 S12       30.48R WCI  -9
6HR MIN TEMP:  -7; 6HR MAX TEMP:   6;

GRND FORKS AFB SUNNY     12   1  62 SW3       30.48S
GRND FORKS NWS   N/A      6  -2  71 S13       30.46R WCI -11
BUXTON           N/A    N/A N/A N/A CALM        N/A
DEVILS LAKE    FAIR       2  -7  66 SW14      30.40R WCI -16
6HR MIN TEMP:  -8; 6HR MAX TEMP:   2;

FARGO          FAIR       6  -4  63 SW10      30.54R WCI  -9
6HR MIN TEMP:  -5; 6HR MAX TEMP:   6;

WAHPETON ARPT  FAIR       5  -6  61 S7        30.58R WCI  -7
$$

 *****  WEATHER ACROSS CENTRAL AND WESTERN NORTH DAKOTA  *****

CITY           SKY/WX    TMP DP  RH WIND       PRES   REMARKS
JAMESTOWN      FAIR      10  -3  55 SW9       30.44R WCI  -3
6HR MIN TEMP:  -5; 6HR MAX TEMP:  10;

BISMARCK       FAIR       9  -5  53 SW12      30.44R WCI  -6
6HR MIN TEMP: -13; 6HR MAX TEMP:   9;

MINOT          FAIR       8  -3  61 W10       30.36R WCI  -6
6HR MIN TEMP:  -4; 6HR MAX TEMP:   8;

MINOT AFB      FAIR       5  -4  65 W14       30.35R WCI -12
6HR MIN TEMP:  -4; 6HR MAX TEMP:   5;

GARRISON         N/A      5  -6  60 W9        30.37R WCI  -9
6HR MIN TEMP: -11; 6HR MAX TEMP:   5;

WILLISTON      FAIR       3  -8  60 SW7       30.33S WCI  -9
6HR MIN TEMP: -12; 6HR MAX TEMP:   3;

DICKINSON      FAIR       8  -6  52 SW10      30.29R WCI  -6
6HR MIN TEMP:  -8; 6HR MAX TEMP:   8;

HETTINGER      FAIR       3  -9  57 CALM      30.34R
6HR MIN TEMP: -16; 6HR MAX TEMP:   3; 6HR PCP: TRACE;

$$

 *****  OTHER OBSERVATIONS NORTHEAST NORTH DAKOTA  *****

CITY           SKY/WX    TMP DP  RH WIND       PRES   REMARKS
WALHALLA       FAIR       9  -4  56 SW7       30.41R WCI  -3
LANGDON        FAIR       5  -6  61 SW14      30.34R WCI -12
CAVALIER         N/A      9  -4  56 SW7       30.42R WCI  -3
GRAFTON        FAIR       7  -2  66 W10       30.47R WCI  -8
CANDO          FAIR       5  -8  56 W13       30.39R WCI -12
FORT TOTTEN      N/A      7 -10  46 W7        29.95  WCI  -5
ROLLA          FAIR      -2  -9  71 SW15      30.31R WCI -22
RUGBY          FAIR       1  -8  66 W14       30.37R WCI -17
 ***** THE ABOVE OBSERVATIONS ARE NON NWS ARE NOT QUALITY
        CONTROLLED AND MAY MIS-REPORT RAIN FOR SNOW...
$$

 *****  OTHER OBSERVATIONS SOUTHEAST NORTH DAKOTA *****

CITY           SKY/WX    TMP DP  RH WIND       PRES   REMARKS
COOPERSTOWN    FAIR       7  -2  66 SW12      30.43S WCI  -9
VALLEY CITY    FAIR       7  -4  61 SW7       30.47R WCI  -5
OAKES            N/A      3  -8  60 S13       30.51R WCI -14
GWINNER          N/A      3  -6  66 SW15      30.52R WCI -15
SHEYENNE NWR     N/A      7  -5  56 SW10      29.95S WCI  -8
BUFFALO          N/A      7  -4  58 N8          N/A  WCI  -5
WYNDMERE       NOT AVBL
 ***** THE ABOVE OBSERVATIONS ARE NON NWS ARE NOT QUALITY
       CONTROLLED AND MAY MIS-REPORT RAIN FOR SNOW...
$$

  *****  WEATHER ACROSS NORTHERN MINNESOTA  *****

CITY           SKY/WX    TMP DP  RH WIND       PRES   REMARKS
FLAG ISLAND    FAIR       7   0  72 S14       30.38R WCI -10
WARROAD        FAIR       9   0  66 SW8       30.41R WCI  -4
ROSEAU         FAIR       7  -2  66 SW10      30.42R WCI  -8
HALLOCK        FAIR       5  -4  66 S10       30.45R WCI -10
THF RVR FALLS  FAIR       2  -7  66 SW15      30.48R WCI -17
6HR MIN TEMP:  -7; 6HR MAX TEMP:   2; 6HR PCP: TRACE;

HALSTAD        NOT AVBL
FOSSTON        FAIR       3  -8  60 S15       30.47R HAZE    WCI -15
BAUDETTE       FAIR      10  -1  61 SW7       30.40R WCI  -1
6HR MIN TEMP:  -6; 6HR MAX TEMP:  10;

WASKISH        FAIR       7   0  72 W9        30.44R WCI  -7
CROOKSTON      FAIR       3  -4  72 S15       30.51R WCI -15
$$
  *****  WEATHER ACROSS CENTRAL AND WEST MINNESOTA  *****

CITY           SKY/WX    TMP DP  RH WIND       PRES   REMARKS
BEMIDJI        FAIR      14  -2  50 SW13G18   30.44R WCI  -1
6HR MIN TEMP:  -6; 6HR MAX TEMP:  14;

PARK RAPIDS    MIX PCPN  10  -1  61 SW10      30.47R WCI  -4
6HR MIN TEMP: -10; 6HR MAX TEMP:  10; 6HR PCP: TRACE;

WADENA         FAIR       9  -4  56 SW8       30.51R WCI  -4
DETROIT LAKES  FAIR       7  -4  61 SW8       30.51R WCI  -6
MOORHEAD       FAIR       1  -8  66 S9        30.55R WCI -14
FERGUS FALLS   FAIR       7  -4  61 S8        30.57R WCI  -6
ELBOW LAKE     FAIR       7  -3  65 SW7       30.57R HAZE    WCI  -5
6HR MIN TEMP: -13; 6HR MAX TEMP:   7;

MORRIS MN      FAIR      10   0  61 S5        30.56R WCI   2
STAPLES        FAIR      12  -4  48 SW5       30.52R WCI   4
WHEATON        FAIR       9  -2  61 S5        30.59R WCI   0
$$
  *****  WEATHER ELSEWHERE ACROSS MINNESOTA  *****

CITY           SKY/WX    TMP DP  RH WIND       PRES   REMARKS
DULUTH         FAIR      15   2  56 SW13      30.48R WCI   1
6HR MIN TEMP:  -4; 6HR MAX TEMP:  15;

INTRNTL FALLS  FAIR      11   1  64 SW7       30.41R WCI   0
6HR MIN TEMP: -13; 6HR MAX TEMP:  11;

ELY            FAIR      12   1  62 SW9       30.43R WCI   0
CLOQUET        FAIR      14   0  52 S10       30.50R WCI   1
BRAINERD       FAIR      15  -3  44 SW8       30.52R WCI   4
6HR MIN TEMP:  -8; 6HR MAX TEMP:  15;

HIBBING        FAIR      13  -1  54 VRB7      30.45R WCI   3
6HR MIN TEMP: -21; 6HR MAX TEMP:  13; 6HR PCP: TRACE;

ALEXANDRIA     FAIR       9  -2  61 SW7       30.53R WCI  -2
6HR MIN TEMP:  -9; 6HR MAX TEMP:   9;

SAINT CLOUD    FAIR      12   0  58 W8        30.58F WCI   0
6HR MIN TEMP:  -9; 6HR MAX TEMP:  12;

MINNEAPOLIS    FAIR      15   4  61 SW7       30.64R WCI   5
6HR MIN TEMP:   2; 6HR MAX TEMP:  15;

$$

  *****  WEATHER ACROSS SOUTH DAKOTA  *****

CITY           SKY/WX    TMP DP  RH WIND       PRES   REMARKS
SIOUX FALLS    FAIR      11   0  61 S6        30.60F WCI   1
6HR MIN TEMP:  -8; 6HR MAX TEMP:  11;

BROOKINGS      FAIR      11   0  61 S9        30.58R WCI  -2
WATERTOWN      FAIR       7  -2  66 SW5       30.51R WCI  -2
6HR MIN TEMP: -12; 6HR MAX TEMP:   7;

HURON          FAIR      10  -1  61 SE7       30.58R WCI  -1
6HR MIN TEMP: -11; 6HR MAX TEMP:  10;

SISSETON         N/A     17  -4  39 NE3       30.54R
ABERDEEN       FAIR       1  -7  68 SW8       30.55R WCI -13
6HR MIN TEMP: -24; 6HR MAX TEMP:   1;

MITCHELL       FAIR      10  -1  61 S8        30.61R WCI  -2
PIERRE         FAIR      -1  -7  75 SE5       30.50R WCI -11
6HR MIN TEMP: -16; 6HR MAX TEMP:  -1; 6HR PCP: TRACE;

MOBRIDGE       FAIR       2  -6  69 SE9       30.44R WCI -13
RAPID CITY     MIX PCPN  -2  -7  79 E6        30.27S WCI -14
6HR MIN TEMP: -18; 6HR MAX TEMP:   3; 6HR PCP: TRACE;

$$

  *****  SOME WEATHER IN NEARBY STATES *****

CITY           SKY/WX    TMP DP  RH WIND       PRES   REMARKS
GLASGOW MT     FAIR      -6 -13  71 E13       30.23F WCI -25
6HR MIN TEMP: -18; 6HR MAX TEMP:  -6;

GREAT FALLS MT FAIR       8  -1  66 SW14      30.02F WCI  -8
6HR MIN TEMP: -11; 6HR MAX TEMP:   8;

CHEYENNE WY    FAIR      18  12  77 S13       30.13R WCI   5
6HR MIN TEMP:  -2; 6HR MAX TEMP:  20;

SCOTTSBLUFF NE MIX PCPN   9   2  73 E12       30.27F WCI  -6
6HR MIN TEMP: -11; 6HR MAX TEMP:   9; 6HR PCP: TRACE;

OMAHA NE       PTSUNNY   21   8  57 E6        30.65F WCI  13
6HR MIN TEMP:   7; 6HR MAX TEMP:  21;

DES MOINES IA  CLOUDY    21  12  68 N8        30.64S WCI  11
6HR MIN TEMP:  12; 6HR MAX TEMP:  21;

DAVENPORT IA   FAIR      25  14  63 N10       30.62R WCI  15
6HR MIN TEMP:  21; 6HR MAX TEMP:  26;

CHICAGO IL     CLOUDY    31  19  61 N9        30.56S WCI  23
6HR MIN TEMP:  27; 6HR MAX TEMP:  31;

EAU CLAIRE WI  FAIR      14   3  61 W7        30.62S WCI   4
6HR MIN TEMP:   0; 6HR MAX TEMP:  14;

LA CROSSE WI   FAIR      20   9  62 N7        30.65S WCI  11
6HR MIN TEMP:  11; 6HR MAX TEMP:  20;

$$

  *****  SOME NATIONAL WEATHER *****

CITY           SKY/WX    TMP DP  RH WIND       PRES   REM



USA.gov is the U.S. government's official web portal to all federal, state and local government web resources and services.